Main page
METAR-TAF:

METAR-TAF

Airports :

Carlos Prates Airport

Belo Horizonte, Minas Gerais, Brazil

latitude: 19-54-33S, longitude: 043-59-21W, elevation: 928 m

Current weather observation

The report was made 1 hour and 22 minutes ago, at 13:00 UTC
Wind 5 kt from the Northeast
Temperature 28°C
Humidity 66%
Pressure 1015 hPa
Visibility 10 km or more
Few clouds at a height of 2500 ft

METAR: SBPR 201300Z 04005KT 9999 FEW025 28/21 Q1015

Time: 11:22 (14:22 UTC)


TAF: missing

Weather observations and forecasts of more than 4000 airports (METAR and TAF reports).

The available stations are represented by yellow and red dots on the map.

Hover mouse over dot to see the name of the station.

Then click to see weather observations and forecasts.

To change the map : click on the green buttons with a black cross to zoom in, on the green button with a dash to zoom out, or on the green arrows for adjacent maps.


METAR-TAF: